Jackson, KY

5:21 AM EDT on May 30, 2017 (GMT -0400)
Carroll

Weather History for KJKL - October, 2011

Change the Weather History Date:

Sunday, October 16, 2011

  Actual Average Record
Temperature  
Mean Temperature 63 °F 58 °F  
Max Temperature 79 °F 68 °F 82 °F (1984)
Min Temperature 46 °F 48 °F 38 °F (1997)
Degree Days  
Heating Degree Days 2 8  
Month to date heating degree days 82 100  
Since 1 July heating degree days 145 152  
Cooling Degree Days 0 1  
Month to date cooling degree days 11 22  
Year to date cooling degree days 1249 1143  
Growing Degree Days 12 (Base 50)    
Moisture  
Dew Point 40 °F    
Average Humidity 50    
Maximum Humidity 71    
Minimum Humidity 28    
Precipitation  
Precipitation 0.00 in 0.10 in 2.12 in (1989)
Month to date precipitation 0.62 1.60  
Year to date precipitation 46.72 38.61  
Snow  
Snow 0.00 in 0.00 in - ()
Month to date snowfall 0.0 0.0  
Since 1 July snowfall 0.0 0.0  
Since 1 September snowfall 0.0 0.0  
Snow Depth 0.00 in    
Sea Level Pressure  
Sea Level Pressure 29.99 in    
Wind  
Wind Speed 4 mph (SW)    
Max Wind Speed 15 mph    
Max Gust Speed 25 mph    
Visibility 10 miles    
Events      
T = Trace of Precipitation, MM = Missing Value Source: NWS Daily Summary

Daily Weather History Graph

Daily Weather History Graph

Search for Another Location

Airport or City:

Trip Planner

Search our weather history database for the weather conditions in past years. The results will help you decide how hot, cold, wet, or windy it might be!

Date:

Astronomy

Oct. 16, 2011 Rise Set
Actual Time 7:42 AM EDT 6:54 PM EDT
Civil Twilight 7:15 AM EDT 7:21 PM EDT
Nautical Twilight 6:45 AM EDT 7:51 PM EDT
Astronomical Twilight 6:15 AM EDT 8:21 PM EDT
Moon 9:44 PM EDT (10/16) 11:53 AM EDT (10/16)
Length of Visible Light 12h 05m
Length of Day
11h 12m
Waning Gibbous, 82% of the Moon is Illuminated
Oct 16
Waning Gibbous
Oct 19
Last Quarter
Oct 26
New
Nov 2
First Quarter
Nov 10
Full

Hourly Weather History & Observations

Time (EDT) Temp. Dew Point Humidity Pressure Visibility Wind Dir Wind Speed Gust Speed Precip Events Conditions
12:53 AM 50.0 °F 36.0 °F 59% 30.06 in 10.0 mi Calm Calm - N/A   Clear
1:53 AM 50.0 °F 35.6 °F 58% 30.08 in 10.0 mi Calm Calm - N/A   Clear
2:53 AM 50.0 °F 36.0 °F 59% 30.06 in 10.0 mi Calm Calm - N/A   Clear
3:53 AM 48.9 °F 36.0 °F 61% 30.08 in 10.0 mi Calm Calm - N/A   Clear
4:53 AM 48.2 °F 35.6 °F 62% 30.10 in 10.0 mi Calm Calm - N/A   Clear
5:53 AM 46.0 °F 37.0 °F 71% 30.10 in 10.0 mi Calm Calm - N/A   Scattered Clouds
6:53 AM 48.0 °F 37.9 °F 68% 30.11 in 10.0 mi Calm Calm - N/A   Overcast
7:53 AM 46.9 °F 37.0 °F 68% 30.10 in 10.0 mi Calm Calm - N/A   Scattered Clouds
8:53 AM 48.9 °F 37.0 °F 64% 30.10 in 10.0 mi Variable 3.5 mph - N/A   Partly Cloudy
9:53 AM 54.0 °F 37.9 °F 55% 30.09 in 10.0 mi Variable 4.6 mph - N/A   Partly Cloudy
10:53 AM 59.0 °F 37.9 °F 46% 30.07 in 10.0 mi Variable 5.8 mph - N/A   Clear
11:53 AM 66.0 °F 39.0 °F 37% 30.04 in 10.0 mi Variable 4.6 mph - N/A   Clear
12:53 PM 73.0 °F 39.0 °F 29% 30.00 in 10.0 mi Variable 5.8 mph - N/A   Clear
1:53 PM 75.9 °F 41.0 °F 29% 29.95 in 10.0 mi SSW 9.2 mph - N/A   Clear
2:53 PM 78.1 °F 42.1 °F 28% 29.91 in 10.0 mi Variable 6.9 mph 19.6 mph N/A   Clear
3:53 PM 79.0 °F 42.1 °F 27% 29.88 in 10.0 mi Variable 5.8 mph 20.7 mph N/A   Clear
4:53 PM 78.1 °F 43.0 °F 29% 29.87 in 10.0 mi SW 8.1 mph - N/A   Clear
5:53 PM 77.0 °F 42.1 °F 29% 29.86 in 10.0 mi Variable 6.9 mph - N/A   Clear
6:53 PM 73.9 °F 43.0 °F 33% 29.86 in 10.0 mi Variable 4.6 mph - N/A   Clear
7:53 PM 72.0 °F 43.0 °F 35% 29.85 in 10.0 mi Variable 4.6 mph - N/A   Clear
8:53 PM 69.1 °F 45.0 °F 42% 29.85 in 10.0 mi Variable 6.9 mph - N/A   Clear
9:53 PM 69.1 °F 46.0 °F 44% 29.87 in 10.0 mi Variable 4.6 mph - N/A   Clear
10:53 PM 69.1 °F 46.0 °F 44% 29.89 in 10.0 mi Variable 3.5 mph - N/A   Clear
11:53 PM 68.0 °F 46.9 °F 47% 29.88 in 10.0 mi Variable 5.8 mph - N/A   Clear